Вернуться в каталог

STARLINK-3898

АктивенСвязьVLEO
NORAD 52458·PAYLOAD·🇺🇸 United States

Запущен May 6, 2022 с Cape Canaveral Space Force Station

Loading…

Ближайшие Пролёты (ближайшие 24 часа)

TLE

СвежийSource: CelesTrak SupGP

Эпоха: Sep 15, 2026, 02:03 UTC

1 52458C 22049H   26258.08590278  .00027960  00000+0  84920-3 0  2580
2 52458  53.1573 294.7599 0001182  91.3021 346.6111 15.33505234    17

Отслеживайте STARLINK-3898 в реальном времени с AllMySat

Download on the App Store